Regional Weather Roundup
Issued by NWS Raleigh/Durham, NC

Home | Current Version | Previous Version | Text Only | Print | Product List | Glossary On
Versions: 1 2 3 4 5 6 7 8 9 10 11 12 13 14 15 16 17 18 19 20 21 22 23 24 25 26 27 28 29 30 31 32 33 34 35 36 37 38 39 40 41 42 43 44 45 46 47 48 49 50
000
ASUS42 KRAH 311810
RWRRAH
NORTH CAROLINA WEATHER ROUNDUP
NATIONAL WEATHER SERVICE RALEIGH NC
200 PM EDT THU JUL 31 2014

NOTE: "FAIR" INDICATES FEW OR NO CLOUDS BELOW 12,000 FEET WITH NO
SIGNIFICANT WEATHER AND/OR OBSTRUCTIONS TO VISIBILITY.

NCZ001-053-055-056-065-067-311900-
WESTERN NORTH CAROLINA

CITY           SKY/WX    TMP DP  RH WIND       PRES   REMARKS
ASHEVILLE      CLOUDY    66  61  84 S3        30.20F
JEFFERSON      CLOUDY    67  58  72 SE3       30.24S
MORGANTON      DRIZZLE   69  66  92 NW5       30.22S
HICKORY        LGT RAIN  69  65  86 N5        30.16F
RUTHERFORDTON  LGT RAIN  66  65  95 N6        30.17F
MOUNT AIRY     CLOUDY    77  66  69 SW3       30.15F
BOONE          RAIN      63  62  97 S5        30.25S
$$

NCZ021-022-025-041-071-084-088-311900-
CENTRAL NORTH CAROLINA

CITY           SKY/WX    TMP DP  RH WIND       PRES   REMARKS
CHARLOTTE      LGT RAIN  78  68  71 N8        30.13F
GREENSBORO     CLOUDY    77  66  68 S3        30.14S
WINSTON-SALEM  CLOUDY    77  63  61 CALM      30.16S
RALEIGH-DURHAM CLOUDY    80  66  62 VRB6      30.14S
FORT BRAGG     MOSUNNY   85  64  50 E7        30.11S
FAYETTEVILLE   MOSUNNY   86  62  44 E7        30.10S
BURLINGTON     CLOUDY    81  62  52 SE7       30.14S
LAURINBURG     PTSUNNY   84  63  49 E8        30.11S
$$

NCZ011-015-027-028-043-044-047-080-103-311900-
NORTHEASTERN NORTH CAROLINA

CITY           SKY/WX    TMP DP  RH WIND       PRES   REMARKS
ROCKY MT-WILSO PTSUNNY   83  66  56 VRB5      30.14S
GREENVILLE     PTSUNNY   82  63  51 E6        30.14F
WASHINGTON     PTSUNNY   82  64  54 SE8       30.14S
ELIZABETH CITY PTSUNNY   81  63  54 E8        30.14S
MANTEO         NOT AVBL
CAPE HATTERAS  NOT AVBL
$$

NCZ078-087-090-091-093-098-101-311900-
SOUTHEASTERN NORTH CAROLINA

CITY           SKY/WX    TMP DP  RH WIND       PRES   REMARKS
LUMBERTON        N/A     87  64  46 MISG      30.09F
GOLDSBORO      MOSUNNY   83  69  61 E8        30.11S
KINSTON        MOSUNNY   84  63  48 NE6       30.13F
KENANSVILLE    MOSUNNY   83  64  53 E6        30.13S
NEW BERN       PTSUNNY   86  65  49 SE9       30.14S
CHERRY POINT   PTSUNNY   83  68  60 E7        30.13S
BEAUFORT       MOSUNNY   85  67  54 E9        30.13R
JACKSONVILLE   MOSUNNY  N/A N/A N/A SE12      30.11F
WILMINGTON     PTSUNNY   86  69  56 E13       30.11S
$$




USA.gov is the U.S. government's official web portal to all federal, state and local government web resources and services.